Location: Mercogliano
(40.9167°N, 14.7333°E)
Time: 02:13:25
(UTC+00:00)

X-37B - Pass Details

Date: 03 December 2020
Orbit: 383 x 391 km, 45.1° (Epoch: 22 January)

Event Time Altitude Azimuth Distance (km) Brightness Sun altitude
Rises 17:01:07 0° 281° (W) 2,259 5.6 -16.2°
Reaches altitude 10° 17:03:17 10° 290° (WNW) 1,407 4.2 -16.5°
Maximum altitude 17:06:15 36° 359° (N) 628 1.5 -17.1°
Enters shadow 17:06:34 35° 15° (NNE) 643 1.4 -17.1°
